Year,Month,Day,Hour,Minute,Value (Times are PST for temperature in C)
2021,07,05,00,00,16.80
2021,07,05,00,01,16.80
2021,07,05,00,02,16.80
2021,07,05,00,03,16.80
2021,07,05,00,04,16.70
2021,07,05,00,05,16.70
2021,07,05,00,06,16.70
2021,07,05,00,07,16.70
2021,07,05,00,08,16.70
2021,07,05,00,09,16.70
2021,07,05,00,10,16.70
2021,07,05,00,11,16.70
2021,07,05,00,12,16.70
2021,07,05,00,13,16.70
2021,07,05,00,14,16.70
2021,07,05,00,15,16.60
2021,07,05,00,16,16.60
2021,07,05,00,17,16.60
2021,07,05,00,18,16.60
2021,07,05,00,19,16.60
2021,07,05,00,20,16.60
2021,07,05,00,21,16.60
2021,07,05,00,22,16.60
2021,07,05,00,23,16.60
2021,07,05,00,24,16.60
2021,07,05,00,25,16.60
2021,07,05,00,26,16.60
2021,07,05,00,27,16.60
2021,07,05,00,28,16.60
2021,07,05,00,29,16.60
2021,07,05,00,30,16.60
2021,07,05,00,31,16.60
2021,07,05,00,32,16.60
2021,07,05,00,33,16.60
2021,07,05,00,34,16.60
2021,07,05,00,35,16.60
2021,07,05,00,36,16.60
2021,07,05,00,37,16.60
2021,07,05,00,38,16.60
2021,07,05,00,39,16.60
2021,07,05,00,40,16.60
2021,07,05,00,41,16.60
2021,07,05,00,42,16.60
2021,07,05,00,43,16.60
2021,07,05,00,44,16.60
2021,07,05,00,45,16.60
2021,07,05,00,46,16.60
2021,07,05,00,47,16.60
2021,07,05,00,48,16.60
2021,07,05,00,49,16.60
2021,07,05,00,50,16.60
2021,07,05,00,51,16.60
2021,07,05,00,52,16.60
2021,07,05,00,53,16.60
2021,07,05,00,54,16.60
2021,07,05,00,55,16.70
2021,07,05,00,56,16.70
2021,07,05,00,57,16.70
2021,07,05,00,58,16.70
2021,07,05,00,59,16.70
2021,07,05,01,00,16.70
2021,07,05,01,01,16.80
2021,07,05,01,02,16.80
2021,07,05,01,03,16.80
2021,07,05,01,04,16.80
2021,07,05,01,05,16.80
2021,07,05,01,06,16.80
2021,07,05,01,07,16.80
2021,07,05,01,08,16.80
2021,07,05,01,09,16.80
2021,07,05,01,10,16.80
2021,07,05,01,11,16.80
2021,07,05,01,12,16.80
2021,07,05,01,13,16.70
2021,07,05,01,14,16.70
2021,07,05,01,15,16.70
2021,07,05,01,16,16.70
2021,07,05,01,17,16.70
2021,07,05,01,18,16.70
2021,07,05,01,19,16.70
2021,07,05,01,20,16.70
2021,07,05,01,21,16.60
2021,07,05,01,22,16.60
2021,07,05,01,23,16.60
2021,07,05,01,24,16.60
2021,07,05,01,25,16.60
2021,07,05,01,26,16.60
2021,07,05,01,27,16.60
2021,07,05,01,28,16.60
2021,07,05,01,29,16.60
2021,07,05,01,30,16.50
2021,07,05,01,31,16.50
2021,07,05,01,32,16.50
2021,07,05,01,33,16.50
2021,07,05,01,34,16.50
2021,07,05,01,35,16.50
2021,07,05,01,36,16.40
2021,07,05,01,37,16.40
2021,07,05,01,38,16.40
2021,07,05,01,39,16.40
2021,07,05,01,40,16.40
2021,07,05,01,41,16.40
2021,07,05,01,42,16.40
2021,07,05,01,43,16.40
2021,07,05,01,44,16.40
2021,07,05,01,45,16.40
2021,07,05,01,46,16.40
2021,07,05,01,47,16.40
2021,07,05,01,48,16.40
2021,07,05,01,49,16.40
2021,07,05,01,50,16.40
2021,07,05,01,51,16.40
2021,07,05,01,52,16.40
2021,07,05,01,53,16.30
2021,07,05,01,54,16.30
2021,07,05,01,55,16.30
2021,07,05,01,56,16.30
2021,07,05,01,57,16.30
2021,07,05,01,58,16.30
2021,07,05,01,59,16.30
2021,07,05,02,00,16.30
2021,07,05,02,01,16.30
2021,07,05,02,02,16.30
2021,07,05,02,03,16.30
2021,07,05,02,04,16.30
2021,07,05,02,05,16.30
2021,07,05,02,06,16.30
2021,07,05,02,07,16.30
2021,07,05,02,08,16.30
2021,07,05,02,09,16.30
2021,07,05,02,10,16.30
2021,07,05,02,11,16.30
2021,07,05,02,12,16.30
2021,07,05,02,13,16.30
2021,07,05,02,14,16.30
2021,07,05,02,15,16.30
2021,07,05,02,16,16.30
2021,07,05,02,17,16.30
2021,07,05,02,18,16.30
2021,07,05,02,19,16.30
2021,07,05,02,20,16.30
2021,07,05,02,21,16.30
2021,07,05,02,22,16.20
2021,07,05,02,23,16.20
2021,07,05,02,24,16.20
2021,07,05,02,25,16.20
2021,07,05,02,26,16.20
2021,07,05,02,27,16.20
2021,07,05,02,28,16.20
2021,07,05,02,29,16.20
2021,07,05,02,30,16.20
2021,07,05,02,31,16.20
2021,07,05,02,32,16.20
2021,07,05,02,33,16.20
2021,07,05,02,34,16.20
2021,07,05,02,35,16.20
2021,07,05,02,36,16.20
2021,07,05,02,37,16.20
2021,07,05,02,38,16.20
2021,07,05,02,39,16.20
2021,07,05,02,40,16.20
2021,07,05,02,41,16.20
2021,07,05,02,42,16.20
2021,07,05,02,43,16.20
2021,07,05,02,44,16.20
2021,07,05,02,45,16.20
2021,07,05,02,46,16.20
2021,07,05,02,47,16.20
2021,07,05,02,48,16.10
2021,07,05,02,49,16.10
2021,07,05,02,50,16.10
2021,07,05,02,51,16.10
2021,07,05,02,52,16.10
2021,07,05,02,53,16.10
2021,07,05,02,54,16.10
2021,07,05,02,55,16.10
2021,07,05,02,56,16.10
2021,07,05,02,57,16.00
2021,07,05,02,58,16.00
2021,07,05,02,59,16.00
2021,07,05,03,00,16.00
2021,07,05,03,01,16.00
2021,07,05,03,02,16.00
2021,07,05,03,03,15.90
2021,07,05,03,04,15.90
2021,07,05,03,05,15.90
2021,07,05,03,06,15.90
2021,07,05,03,07,15.90
2021,07,05,03,08,15.90
2021,07,05,03,09,15.90
2021,07,05,03,10,15.80
2021,07,05,03,11,15.80
2021,07,05,03,12,15.80
2021,07,05,03,13,15.80
2021,07,05,03,14,15.80
2021,07,05,03,15,15.80
2021,07,05,03,16,15.80
2021,07,05,03,17,15.80
2021,07,05,03,18,15.80
2021,07,05,03,19,15.80
2021,07,05,03,20,15.80
2021,07,05,03,21,15.80
2021,07,05,03,22,15.80
2021,07,05,03,23,15.80
2021,07,05,03,24,15.80
2021,07,05,03,25,15.80
2021,07,05,03,26,15.80
2021,07,05,03,27,15.80
2021,07,05,03,28,15.70
2021,07,05,03,29,15.70
2021,07,05,03,30,15.70
2021,07,05,03,31,15.70
2021,07,05,03,32,15.70
2021,07,05,03,33,15.70
2021,07,05,03,34,15.70
2021,07,05,03,35,15.70
2021,07,05,03,36,15.70
2021,07,05,03,37,15.70
2021,07,05,03,38,15.70
2021,07,05,03,39,15.70
2021,07,05,03,40,15.60
2021,07,05,03,41,15.60
2021,07,05,03,42,15.60
2021,07,05,03,43,15.60
2021,07,05,03,44,15.60
2021,07,05,03,45,15.60
2021,07,05,03,46,15.60
2021,07,05,03,47,15.60
2021,07,05,03,48,15.60
2021,07,05,03,49,15.60
2021,07,05,03,50,15.60
2021,07,05,03,51,15.60
2021,07,05,03,52,15.60
2021,07,05,03,53,15.60
2021,07,05,03,54,15.60
2021,07,05,03,55,15.60
2021,07,05,03,56,15.60
2021,07,05,03,57,15.60
2021,07,05,03,58,15.60
2021,07,05,03,59,15.60
2021,07,05,04,00,15.60
2021,07,05,04,01,15.60
2021,07,05,04,02,15.60
2021,07,05,04,03,15.60
2021,07,05,04,04,15.60
2021,07,05,04,05,15.60
2021,07,05,04,06,15.60
2021,07,05,04,07,15.60
2021,07,05,04,08,15.60
2021,07,05,04,09,15.60
2021,07,05,04,10,15.60
2021,07,05,04,11,15.60
2021,07,05,04,12,15.60
2021,07,05,04,13,15.60
2021,07,05,04,14,15.60
2021,07,05,04,15,15.60
2021,07,05,04,16,15.60
2021,07,05,04,17,15.50
2021,07,05,04,18,15.50
2021,07,05,04,19,15.50
2021,07,05,04,20,15.50
2021,07,05,04,21,15.50
2021,07,05,04,22,15.50
2021,07,05,04,23,15.50
2021,07,05,04,24,15.40
2021,07,05,04,25,15.40
2021,07,05,04,26,15.40
2021,07,05,04,27,15.40
2021,07,05,04,28,15.40
2021,07,05,04,29,15.40
2021,07,05,04,30,15.40
2021,07,05,04,31,15.30
2021,07,05,04,32,15.30
2021,07,05,04,33,15.30
2021,07,05,04,34,15.30
2021,07,05,04,35,15.30
2021,07,05,04,36,15.30
2021,07,05,04,37,15.30
2021,07,05,04,38,15.30
2021,07,05,04,39,15.30
2021,07,05,04,40,15.30
2021,07,05,04,41,15.30
2021,07,05,04,42,15.20
2021,07,05,04,43,15.20
2021,07,05,04,44,15.20
2021,07,05,04,45,15.20
2021,07,05,04,46,15.20
2021,07,05,04,47,15.30
2021,07,05,04,48,15.30
2021,07,05,04,49,15.30
2021,07,05,04,50,15.30
2021,07,05,04,51,15.30
2021,07,05,04,52,15.30
2021,07,05,04,53,15.30
2021,07,05,04,54,15.30
2021,07,05,04,55,15.30
2021,07,05,04,56,15.30
2021,07,05,04,57,15.30
2021,07,05,04,58,15.30
2021,07,05,04,59,15.30
2021,07,05,05,00,15.20
2021,07,05,05,01,15.20
2021,07,05,05,02,15.20
2021,07,05,05,03,15.20
2021,07,05,05,04,15.20
2021,07,05,05,05,15.10
2021,07,05,05,06,15.10
2021,07,05,05,07,15.10
2021,07,05,05,08,15.10
2021,07,05,05,09,15.10
2021,07,05,05,10,15.10
2021,07,05,05,11,15.10
2021,07,05,05,12,15.10
2021,07,05,05,13,15.10
2021,07,05,05,14,15.10
2021,07,05,05,15,15.10
2021,07,05,05,16,15.10
2021,07,05,05,17,15.00
2021,07,05,05,18,15.00
2021,07,05,05,19,15.00
2021,07,05,05,20,15.00
2021,07,05,05,21,14.90
2021,07,05,05,22,14.90
2021,07,05,05,23,14.90
2021,07,05,05,24,14.90
2021,07,05,05,25,14.90
2021,07,05,05,26,14.80
2021,07,05,05,27,14.80
2021,07,05,05,28,14.80
2021,07,05,05,29,14.80
2021,07,05,05,30,14.80
2021,07,05,05,31,14.80
2021,07,05,05,32,14.80
2021,07,05,05,33,14.70
2021,07,05,05,34,14.70
2021,07,05,05,35,14.70
2021,07,05,05,36,14.70
2021,07,05,05,37,14.70
2021,07,05,05,38,14.70
2021,07,05,05,39,14.70
2021,07,05,05,40,14.70
2021,07,05,05,41,14.60
2021,07,05,05,42,14.60
2021,07,05,05,43,14.60
2021,07,05,05,44,14.60
2021,07,05,05,45,14.60
2021,07,05,05,46,14.50
2021,07,05,05,47,14.50
2021,07,05,05,48,14.50
2021,07,05,05,49,14.50
2021,07,05,05,50,14.40
2021,07,05,05,51,14.40
2021,07,05,05,52,14.40
2021,07,05,05,53,14.40
2021,07,05,05,54,14.40
2021,07,05,05,55,14.40
2021,07,05,05,56,14.40
2021,07,05,05,57,14.40
2021,07,05,05,58,14.40
2021,07,05,05,59,14.30
2021,07,05,06,00,14.30
2021,07,05,06,01,14.30
2021,07,05,06,02,14.30
2021,07,05,06,03,14.30
2021,07,05,06,04,14.30
2021,07,05,06,05,14.30
2021,07,05,06,06,14.30
2021,07,05,06,07,14.30
2021,07,05,06,08,14.30
2021,07,05,06,09,14.30
2021,07,05,06,10,14.30
2021,07,05,06,11,14.30
2021,07,05,06,12,14.30
2021,07,05,06,13,14.30
2021,07,05,06,14,14.30
2021,07,05,06,15,14.20
2021,07,05,06,16,14.20
2021,07,05,06,17,14.20
2021,07,05,06,18,14.20
2021,07,05,06,19,14.30
2021,07,05,06,20,14.30
2021,07,05,06,21,14.30
2021,07,05,06,22,14.30
2021,07,05,06,23,14.30
2021,07,05,06,24,14.30
2021,07,05,06,25,14.30
2021,07,05,06,26,14.30
2021,07,05,06,27,14.30
2021,07,05,06,28,14.30
2021,07,05,06,29,14.30
2021,07,05,06,30,14.30
2021,07,05,06,31,14.30
2021,07,05,06,32,14.30
2021,07,05,06,33,14.30
2021,07,05,06,34,14.30
2021,07,05,06,35,14.30
2021,07,05,06,36,14.30
2021,07,05,06,37,14.30
2021,07,05,06,38,14.30
2021,07,05,06,39,14.30
2021,07,05,06,40,14.30
2021,07,05,06,41,14.30
2021,07,05,06,42,14.30
2021,07,05,06,43,14.30
2021,07,05,06,44,14.30
2021,07,05,06,45,14.30
2021,07,05,06,46,14.40
2021,07,05,06,47,14.40
2021,07,05,06,48,14.40
2021,07,05,06,49,14.40
2021,07,05,06,50,14.40
2021,07,05,06,51,14.40
2021,07,05,06,52,14.40
2021,07,05,06,53,14.40
2021,07,05,06,54,14.40
2021,07,05,06,55,14.40
2021,07,05,06,56,14.40
2021,07,05,06,57,14.40
2021,07,05,06,58,14.40
2021,07,05,06,59,14.40
2021,07,05,07,00,14.40
2021,07,05,07,01,14.40
2021,07,05,07,02,14.50
2021,07,05,07,03,14.50
2021,07,05,07,04,14.50
2021,07,05,07,05,14.50
2021,07,05,07,06,14.60
2021,07,05,07,07,14.60
2021,07,05,07,08,14.60
2021,07,05,07,09,14.70
2021,07,05,07,10,14.70
2021,07,05,07,11,14.70
2021,07,05,07,12,14.80
2021,07,05,07,13,14.80
2021,07,05,07,14,14.80
2021,07,05,07,15,14.90
2021,07,05,07,16,14.90
2021,07,05,07,17,14.90
2021,07,05,07,18,15.00
2021,07,05,07,19,15.00
2021,07,05,07,20,15.10
2021,07,05,07,21,15.10
2021,07,05,07,22,15.10
2021,07,05,07,23,15.20
2021,07,05,07,24,15.20
2021,07,05,07,25,15.30
2021,07,05,07,26,15.30
2021,07,05,07,27,15.40
2021,07,05,07,28,15.40
2021,07,05,07,29,15.40
2021,07,05,07,30,15.50
2021,07,05,07,31,15.50
2021,07,05,07,32,15.60
2021,07,05,07,33,15.60
2021,07,05,07,34,15.70
2021,07,05,07,35,15.70
2021,07,05,07,36,15.80
2021,07,05,07,37,15.80
2021,07,05,07,38,15.90
2021,07,05,07,39,15.90
2021,07,05,07,40,16.00
2021,07,05,07,41,16.10
2021,07,05,07,42,16.20
2021,07,05,07,43,16.20
2021,07,05,07,44,16.30
2021,07,05,07,45,16.30
2021,07,05,07,46,16.40
2021,07,05,07,47,16.40
2021,07,05,07,48,16.40
2021,07,05,07,49,16.50
2021,07,05,07,50,16.50
2021,07,05,07,51,16.60
2021,07,05,07,52,16.60
2021,07,05,07,53,16.70
2021,07,05,07,54,16.70
2021,07,05,07,55,16.80
2021,07,05,07,56,16.80
2021,07,05,07,57,16.80
2021,07,05,07,58,16.90
2021,07,05,07,59,16.90
2021,07,05,08,00,16.90
2021,07,05,08,01,17.00
2021,07,05,08,02,17.00
2021,07,05,08,03,17.10
2021,07,05,08,04,17.10
2021,07,05,08,05,17.10
2021,07,05,08,06,17.10
2021,07,05,08,07,17.20
2021,07,05,08,08,17.20
2021,07,05,08,09,17.20
2021,07,05,08,10,17.20
2021,07,05,08,11,17.30
2021,07,05,08,12,17.30
2021,07,05,08,13,17.30
2021,07,05,08,14,17.40
2021,07,05,08,15,17.40
2021,07,05,08,16,17.40
2021,07,05,08,17,17.50
2021,07,05,08,18,17.50
2021,07,05,08,19,17.60
2021,07,05,08,20,17.60
2021,07,05,08,21,17.60
2021,07,05,08,22,17.60
2021,07,05,08,23,17.60
2021,07,05,08,24,17.60
2021,07,05,08,25,17.70
2021,07,05,08,26,17.70
2021,07,05,08,27,17.80
2021,07,05,08,28,17.80
2021,07,05,08,29,17.80
2021,07,05,08,30,17.90
2021,07,05,08,31,17.90
2021,07,05,08,32,17.90
2021,07,05,08,33,18.00
2021,07,05,08,34,18.00
2021,07,05,08,35,18.00
2021,07,05,08,36,18.00
2021,07,05,08,37,18.10
2021,07,05,08,38,18.10
2021,07,05,08,39,18.10
2021,07,05,08,40,18.10
2021,07,05,08,41,18.10
2021,07,05,08,42,18.20
2021,07,05,08,43,18.20
2021,07,05,08,44,18.20
2021,07,05,08,45,18.20
2021,07,05,08,46,18.20
2021,07,05,08,47,18.20
2021,07,05,08,48,18.30
2021,07,05,08,49,18.30
2021,07,05,08,50,18.30
2021,07,05,08,51,18.30
2021,07,05,08,52,18.40
2021,07,05,08,53,18.40
2021,07,05,08,54,18.40
2021,07,05,08,55,18.40
2021,07,05,08,56,18.50
2021,07,05,08,57,18.50
2021,07,05,08,58,18.50
2021,07,05,08,59,18.50
2021,07,05,09,00,18.60
2021,07,05,09,01,18.60
2021,07,05,09,02,18.60
2021,07,05,09,03,18.70
2021,07,05,09,04,18.70
2021,07,05,09,05,18.70
2021,07,05,09,06,18.70
2021,07,05,09,07,18.70
2021,07,05,09,08,18.80
2021,07,05,09,09,18.80
2021,07,05,09,10,18.80
2021,07,05,09,11,18.90
2021,07,05,09,12,18.90
2021,07,05,09,13,19.00
2021,07,05,09,14,19.00
2021,07,05,09,15,19.00
2021,07,05,09,16,19.10
2021,07,05,09,17,19.10
2021,07,05,09,18,19.20
2021,07,05,09,19,19.20
2021,07,05,09,20,19.30
2021,07,05,09,21,19.30
2021,07,05,09,22,19.30
2021,07,05,09,23,19.40
2021,07,05,09,24,19.40
2021,07,05,09,25,19.50
2021,07,05,09,26,19.60
2021,07,05,09,27,19.60
2021,07,05,09,28,19.70
2021,07,05,09,29,19.70
2021,07,05,09,30,19.80
2021,07,05,09,31,19.90
2021,07,05,09,32,20.00
2021,07,05,09,33,20.10
2021,07,05,09,34,20.20
2021,07,05,09,35,20.30
2021,07,05,09,36,20.40
2021,07,05,09,37,20.50
2021,07,05,09,38,20.70
2021,07,05,09,39,20.80
2021,07,05,09,40,20.90
2021,07,05,09,41,21.00
2021,07,05,09,42,21.00
2021,07,05,09,43,21.10
2021,07,05,09,44,21.20
2021,07,05,09,45,21.30
2021,07,05,09,46,21.30
2021,07,05,09,47,21.40
2021,07,05,09,48,21.40
2021,07,05,09,49,21.50
2021,07,05,09,50,21.50
2021,07,05,09,51,21.50
2021,07,05,09,52,21.60
2021,07,05,09,53,21.60
2021,07,05,09,54,21.70
2021,07,05,09,55,21.70
2021,07,05,09,56,21.80
2021,07,05,09,57,21.80
2021,07,05,09,58,21.80
2021,07,05,09,59,21.80
2021,07,05,10,00,21.80
2021,07,05,10,01,21.70
2021,07,05,10,02,21.70
2021,07,05,10,03,21.60
2021,07,05,10,04,21.60
2021,07,05,10,05,21.60
2021,07,05,10,06,21.50
2021,07,05,10,07,21.50
2021,07,05,10,08,21.40
2021,07,05,10,09,21.30
2021,07,05,10,10,21.30
2021,07,05,10,11,21.20
2021,07,05,10,12,21.20
2021,07,05,10,13,21.20
2021,07,05,10,14,21.20
2021,07,05,10,15,21.20
2021,07,05,10,16,21.20
2021,07,05,10,17,21.20
2021,07,05,10,18,21.20
2021,07,05,10,19,21.20
2021,07,05,10,20,21.20
2021,07,05,10,21,21.30
2021,07,05,10,22,21.30
2021,07,05,10,23,21.30
2021,07,05,10,24,21.40
2021,07,05,10,25,21.40
2021,07,05,10,26,21.40
2021,07,05,10,27,21.40
2021,07,05,10,28,21.50
2021,07,05,10,29,21.60
2021,07,05,10,30,21.60
2021,07,05,10,31,21.70
2021,07,05,10,32,21.70
2021,07,05,10,33,21.80
2021,07,05,10,34,21.80
2021,07,05,10,35,21.90
2021,07,05,10,36,21.90
2021,07,05,10,37,21.90
2021,07,05,10,38,21.80
2021,07,05,10,39,21.70
2021,07,05,10,40,21.60
2021,07,05,10,41,21.60
2021,07,05,10,42,21.60
2021,07,05,10,43,21.50
2021,07,05,10,44,21.50
2021,07,05,10,45,21.40
2021,07,05,10,46,21.40
2021,07,05,10,47,21.40
2021,07,05,10,48,21.30
2021,07,05,10,49,21.30
2021,07,05,10,50,21.30
2021,07,05,10,51,21.20
2021,07,05,10,52,21.20
2021,07,05,10,53,21.20
2021,07,05,10,54,21.10
2021,07,05,10,55,21.10
2021,07,05,10,56,21.10
2021,07,05,10,57,21.10
2021,07,05,10,58,21.10
2021,07,05,10,59,21.10
2021,07,05,11,00,21.10
2021,07,05,11,01,21.10
2021,07,05,11,02,21.00
2021,07,05,11,03,21.00
2021,07,05,11,04,21.10
2021,07,05,11,05,21.10
2021,07,05,11,06,21.10
2021,07,05,11,07,21.20
2021,07,05,11,08,21.20
2021,07,05,11,09,21.20
2021,07,05,11,10,21.30
2021,07,05,11,11,21.30
2021,07,05,11,12,21.30
2021,07,05,11,13,21.30
2021,07,05,11,14,21.40
2021,07,05,11,15,21.40
2021,07,05,11,16,21.40
2021,07,05,11,17,21.40
2021,07,05,11,18,21.40
2021,07,05,11,19,21.40
2021,07,05,11,20,21.40
2021,07,05,11,21,21.30
2021,07,05,11,22,21.30
2021,07,05,11,23,21.30
2021,07,05,11,24,21.30
2021,07,05,11,25,21.30
2021,07,05,11,26,21.30
2021,07,05,11,27,21.30
2021,07,05,11,28,21.30
2021,07,05,11,29,21.30
2021,07,05,11,30,21.20
2021,07,05,11,31,21.20
2021,07,05,11,32,21.20
2021,07,05,11,33,21.20
2021,07,05,11,34,21.20
2021,07,05,11,35,21.20
2021,07,05,11,36,21.10
2021,07,05,11,37,21.00
2021,07,05,11,38,21.00
2021,07,05,11,39,21.00
2021,07,05,11,40,20.90
2021,07,05,11,41,20.90
2021,07,05,11,42,20.80
2021,07,05,11,43,20.80
2021,07,05,11,44,20.90
2021,07,05,11,45,20.90
2021,07,05,11,46,20.90
2021,07,05,11,47,20.80
2021,07,05,11,48,20.80
2021,07,05,11,49,20.80
2021,07,05,11,50,20.80
2021,07,05,11,51,20.90
2021,07,05,11,52,20.90
2021,07,05,11,53,20.90
2021,07,05,11,54,20.90
2021,07,05,11,55,20.90
2021,07,05,11,56,20.80
2021,07,05,11,57,20.80
2021,07,05,11,58,20.80
2021,07,05,11,59,20.70
2021,07,05,12,00,20.70
2021,07,05,12,01,20.70
2021,07,05,12,02,20.70
2021,07,05,12,03,20.70
2021,07,05,12,04,20.70
2021,07,05,12,05,20.60
2021,07,05,12,06,20.60
2021,07,05,12,07,20.50
2021,07,05,12,08,20.50
2021,07,05,12,09,20.50
2021,07,05,12,10,20.50
2021,07,05,12,11,20.50
2021,07,05,12,12,20.60
2021,07,05,12,13,20.60
2021,07,05,12,14,20.60
2021,07,05,12,15,20.70
2021,07,05,12,16,20.80
2021,07,05,12,17,20.80
2021,07,05,12,18,20.90
2021,07,05,12,19,21.00
2021,07,05,12,20,21.00
2021,07,05,12,21,21.10
2021,07,05,12,22,21.20
2021,07,05,12,23,21.20
2021,07,05,12,24,21.20
2021,07,05,12,25,21.20
2021,07,05,12,26,21.20
2021,07,05,12,27,21.10
2021,07,05,12,28,21.10
2021,07,05,12,29,21.00
2021,07,05,12,30,21.00
2021,07,05,12,31,20.90
2021,07,05,12,32,20.90
2021,07,05,12,33,20.80
2021,07,05,12,34,20.80
2021,07,05,12,35,20.90
2021,07,05,12,36,20.80
2021,07,05,12,37,20.90
2021,07,05,12,38,20.90
2021,07,05,12,39,20.90
2021,07,05,12,40,20.90
2021,07,05,12,41,20.90
2021,07,05,12,42,20.90
2021,07,05,12,43,20.90
2021,07,05,12,44,20.90
2021,07,05,12,45,20.90
2021,07,05,12,46,20.90
2021,07,05,12,47,20.80
2021,07,05,12,48,20.90
2021,07,05,12,49,20.80
2021,07,05,12,50,20.80
2021,07,05,12,51,20.70
2021,07,05,12,52,20.70
2021,07,05,12,53,20.70
2021,07,05,12,54,20.70
2021,07,05,12,55,20.70
2021,07,05,12,56,20.70
2021,07,05,12,57,20.60
2021,07,05,12,58,20.60
2021,07,05,12,59,20.60
2021,07,05,13,00,20.60
2021,07,05,13,01,20.60
2021,07,05,13,02,20.60
2021,07,05,13,03,20.50
2021,07,05,13,04,20.50
2021,07,05,13,05,20.40
2021,07,05,13,06,20.40
2021,07,05,13,07,20.30
2021,07,05,13,08,20.30
2021,07,05,13,09,20.30
2021,07,05,13,10,20.30
2021,07,05,13,11,20.30
2021,07,05,13,12,20.30
2021,07,05,13,13,20.20
2021,07,05,13,14,20.20
2021,07,05,13,15,20.10
2021,07,05,13,16,20.00
2021,07,05,13,17,19.90
2021,07,05,13,18,19.90
2021,07,05,13,19,19.90
2021,07,05,13,20,19.90
2021,07,05,13,21,20.00
2021,07,05,13,22,20.00
2021,07,05,13,23,20.10
2021,07,05,13,24,20.10
2021,07,05,13,25,20.10
2021,07,05,13,26,20.20
2021,07,05,13,27,20.20
2021,07,05,13,28,20.20
2021,07,05,13,29,20.20
2021,07,05,13,30,20.20
2021,07,05,13,31,20.20
2021,07,05,13,32,20.20
2021,07,05,13,33,20.20
2021,07,05,13,34,20.20
2021,07,05,13,35,20.20
2021,07,05,13,36,20.20
2021,07,05,13,37,20.30
2021,07,05,13,38,20.40
2021,07,05,13,39,20.40
2021,07,05,13,40,20.40
2021,07,05,13,41,20.40
2021,07,05,13,42,20.50
2021,07,05,13,43,20.50
2021,07,05,13,44,20.50
2021,07,05,13,45,20.50
2021,07,05,13,46,20.60
2021,07,05,13,47,20.60
2021,07,05,13,48,20.50
2021,07,05,13,49,20.50
2021,07,05,13,50,20.40
2021,07,05,13,51,20.30
2021,07,05,13,52,20.30
2021,07,05,13,53,20.20
2021,07,05,13,54,20.20
2021,07,05,13,55,20.20
2021,07,05,13,56,20.20
2021,07,05,13,57,20.20
2021,07,05,13,58,20.20
2021,07,05,13,59,20.20
2021,07,05,14,00,20.20
2021,07,05,14,01,20.20
2021,07,05,14,02,20.10
2021,07,05,14,03,20.10
2021,07,05,14,04,20.10
2021,07,05,14,05,20.10
2021,07,05,14,06,20.10
2021,07,05,14,07,20.10
2021,07,05,14,08,20.10
2021,07,05,14,09,20.10
2021,07,05,14,10,20.20
2021,07,05,14,11,20.20
2021,07,05,14,12,20.30
2021,07,05,14,13,20.30
2021,07,05,14,14,20.40
2021,07,05,14,15,20.40
2021,07,05,14,16,20.40
2021,07,05,14,17,20.40
2021,07,05,14,18,20.50
2021,07,05,14,19,20.60
2021,07,05,14,20,20.60
2021,07,05,14,21,20.70
2021,07,05,14,22,20.60
2021,07,05,14,23,20.60
2021,07,05,14,24,20.60
2021,07,05,14,25,20.70
2021,07,05,14,26,20.70
2021,07,05,14,27,20.70
2021,07,05,14,28,20.80
2021,07,05,14,29,20.80
2021,07,05,14,30,20.80
2021,07,05,14,31,20.80
2021,07,05,14,32,20.90
2021,07,05,14,33,20.90
2021,07,05,14,34,20.90
2021,07,05,14,35,20.90
2021,07,05,14,36,20.90
2021,07,05,14,37,20.90
2021,07,05,14,38,20.90
2021,07,05,14,39,20.80
2021,07,05,14,40,20.80
2021,07,05,14,41,20.80
2021,07,05,14,42,20.70
2021,07,05,14,43,20.70
2021,07,05,14,44,20.80
2021,07,05,14,45,20.70
2021,07,05,14,46,20.70
2021,07,05,14,47,20.70
2021,07,05,14,48,20.70
2021,07,05,14,49,20.70
2021,07,05,14,50,20.70
2021,07,05,14,51,20.70
2021,07,05,14,52,20.70
2021,07,05,14,53,20.60
2021,07,05,14,54,20.60
2021,07,05,14,55,20.60
2021,07,05,14,56,20.60
2021,07,05,14,57,20.60
2021,07,05,14,58,20.60
2021,07,05,14,59,20.60
2021,07,05,15,00,20.60
2021,07,05,15,01,20.70
2021,07,05,15,02,20.70
2021,07,05,15,03,20.60
2021,07,05,15,04,20.60
2021,07,05,15,05,20.60
2021,07,05,15,06,20.60
2021,07,05,15,07,20.60
2021,07,05,15,08,20.70
2021,07,05,15,09,20.70
2021,07,05,15,10,20.70
2021,07,05,15,11,20.70
2021,07,05,15,12,20.60
2021,07,05,15,13,20.60
2021,07,05,15,14,20.60
2021,07,05,15,15,20.60
2021,07,05,15,16,20.50
2021,07,05,15,17,20.60
2021,07,05,15,18,20.60
2021,07,05,15,19,20.60
2021,07,05,15,20,20.60
2021,07,05,15,21,20.60
2021,07,05,15,22,20.70
2021,07,05,15,23,20.70
2021,07,05,15,24,20.70
2021,07,05,15,25,20.80
2021,07,05,15,26,20.80
2021,07,05,15,27,20.80
2021,07,05,15,28,20.80
2021,07,05,15,29,20.80
2021,07,05,15,30,20.80
2021,07,05,15,31,20.90
2021,07,05,15,32,20.90
2021,07,05,15,33,20.90
2021,07,05,15,34,20.90
2021,07,05,15,35,20.90
2021,07,05,15,36,20.90
2021,07,05,15,37,20.90
2021,07,05,15,38,20.90
2021,07,05,15,39,20.90
2021,07,05,15,40,20.90
2021,07,05,15,41,20.90
2021,07,05,15,42,20.90
2021,07,05,15,43,20.90
2021,07,05,15,44,20.90
2021,07,05,15,45,20.90
2021,07,05,15,46,20.90
2021,07,05,15,47,20.90
2021,07,05,15,48,20.90
2021,07,05,15,49,21.00
2021,07,05,15,50,21.10
2021,07,05,15,51,21.10
2021,07,05,15,52,21.20
2021,07,05,15,53,21.20
2021,07,05,15,54,21.30
2021,07,05,15,55,21.30
2021,07,05,15,56,21.30
2021,07,05,15,57,21.30
2021,07,05,15,58,21.30
2021,07,05,15,59,21.40
2021,07,05,16,00,21.40
2021,07,05,16,01,21.50
2021,07,05,16,02,21.50
2021,07,05,16,03,21.60
2021,07,05,16,04,21.60
2021,07,05,16,05,21.50
2021,07,05,16,06,21.50
2021,07,05,16,07,21.40
2021,07,05,16,08,21.40
2021,07,05,16,09,21.40
2021,07,05,16,10,21.40
2021,07,05,16,11,21.40
2021,07,05,16,12,21.50
2021,07,05,16,13,21.50
2021,07,05,16,14,21.60
2021,07,05,16,15,21.60
2021,07,05,16,16,21.60
2021,07,05,16,17,21.70
2021,07,05,16,18,21.70
2021,07,05,16,19,21.70
2021,07,05,16,20,21.70
2021,07,05,16,21,21.70
2021,07,05,16,22,21.70
2021,07,05,16,23,21.70
2021,07,05,16,24,21.70
2021,07,05,16,25,21.70
2021,07,05,16,26,21.70
2021,07,05,16,27,21.70
2021,07,05,16,28,21.80
2021,07,05,16,29,21.80
2021,07,05,16,30,21.90
2021,07,05,16,31,21.90
2021,07,05,16,32,21.90
2021,07,05,16,33,22.00
2021,07,05,16,34,22.00
2021,07,05,16,35,22.00
2021,07,05,16,36,22.00
2021,07,05,16,37,22.00
2021,07,05,16,38,22.10
2021,07,05,16,39,22.10
2021,07,05,16,40,22.10
2021,07,05,16,41,22.20
2021,07,05,16,42,22.20
2021,07,05,16,43,22.10
2021,07,05,16,44,22.20
2021,07,05,16,45,22.20
2021,07,05,16,46,22.20
2021,07,05,16,47,22.20
2021,07,05,16,48,22.20
2021,07,05,16,49,22.20
2021,07,05,16,50,22.20
2021,07,05,16,51,22.20
2021,07,05,16,52,22.20
2021,07,05,16,53,22.20
2021,07,05,16,54,22.20
2021,07,05,16,55,22.20
2021,07,05,16,56,22.20
2021,07,05,16,57,22.10
2021,07,05,16,58,22.10
2021,07,05,16,59,22.00
2021,07,05,17,00,22.00
2021,07,05,17,01,22.00
2021,07,05,17,02,21.90
2021,07,05,17,03,21.90
2021,07,05,17,04,21.90
2021,07,05,17,05,21.90
2021,07,05,17,06,21.90
2021,07,05,17,07,21.90
2021,07,05,17,08,21.90
2021,07,05,17,09,21.80
2021,07,05,17,10,21.80
2021,07,05,17,11,21.80
2021,07,05,17,12,21.80
2021,07,05,17,13,21.70
2021,07,05,17,14,21.70
2021,07,05,17,15,21.60
2021,07,05,17,16,21.60
2021,07,05,17,17,21.60
2021,07,05,17,18,21.60
2021,07,05,17,19,21.60